AXM6316 WMKK-WMKL

Flight info

Callsign AXM6316
Flight time 0h 44m
Altitude 30000
Route ATIMU1F ATIMU Y506 VPG W525 KAPKO KAPKO1E
Aircraft A320/M-SDE3FGHIRWY/LB1

Departure

Time 2026-05-01 09:07
Airport Kuala Lumpur International Airport (WMKK)

Arrival

Time 2026-05-01 09:51
Airport Langkawi International Airport (WMKL)
Time Latitude Longitude Altitude Speed Heading
2026-05-01 08:48 2.73769 101.68477 42 ft 0 kts 146°
2026-05-01 08:58 2.73771 101.68475 42 ft 3 kts 146°
2026-05-01 08:58 2.73794 101.68461 42 ft 4 kts 159°
2026-05-01 08:58 2.73815 101.68460 40 ft 3 kts 234°
2026-05-01 08:59 2.73824 101.68474 42 ft 0 kts 236°
2026-05-01 09:01 2.73823 101.68471 42 ft 4 kts 236°
2026-05-01 09:01 2.73802 101.68371 42 ft 15 kts 242°
2026-05-01 09:01 2.73762 101.68312 42 ft 16 kts 236°
2026-05-01 09:01 2.73680 101.68197 40 ft 9 kts 207°
2026-05-01 09:02 2.73626 101.68216 40 ft 12 kts 148°
2026-05-01 09:02 2.73573 101.68253 40 ft 15 kts 145°
2026-05-01 09:02 2.73495 101.68305 40 ft 13 kts 146°
2026-05-01 09:02 2.73414 101.68359 40 ft 19 kts 146°
2026-05-01 09:03 2.73298 101.68438 40 ft 21 kts 145°
2026-05-01 09:03 2.73172 101.68522 40 ft 22 kts 147°
2026-05-01 09:03 2.73041 101.68611 40 ft 24 kts 146°
2026-05-01 09:03 2.72899 101.68705 40 ft 25 kts 148°
2026-05-01 09:04 2.72749 101.68807 40 ft 27 kts 145°
2026-05-01 09:04 2.72590 101.68915 40 ft 28 kts 146°
2026-05-01 09:04 2.72423 101.69029 40 ft 30 kts 145°
2026-05-01 09:04 2.72249 101.69144 40 ft 31 kts 146°
2026-05-01 09:05 2.72068 101.69266 40 ft 32 kts 146°
2026-05-01 09:05 2.71898 101.69380 40 ft 25 kts 147°
2026-05-01 09:05 2.71799 101.69356 40 ft 15 kts 233°
2026-05-01 09:05 2.71748 101.69269 39 ft 14 kts 258°
2026-05-01 09:06 2.71785 101.69181 39 ft 15 kts 303°
2026-05-01 09:06 2.71841 101.69088 39 ft 17 kts 300°
2026-05-01 09:06 2.71941 101.69012 39 ft 24 kts 326°
2026-05-01 09:06 2.72294 101.68775 38 ft 96 kts 326°
2026-05-01 09:07 2.73012 101.68291 39 ft 150 kts 326°
2026-05-01 09:07 2.73961 101.67651 418 ft 164 kts 327°
2026-05-01 09:07 2.74920 101.67015 1075 ft 166 kts 326°
2026-05-01 09:07 2.75877 101.66323 1609 ft 177 kts 311°
2026-05-01 09:08 2.76312 101.65137 1911 ft 196 kts 268°
2026-05-01 09:08 2.76266 101.63695 2186 ft 220 kts 268°
2026-05-01 09:08 2.76244 101.62073 2566 ft 247 kts 269°
2026-05-01 09:08 2.76248 101.60279 3071 ft 266 kts 271°
2026-05-01 09:09 2.76486 101.58420 3768 ft 275 kts 290°
2026-05-01 09:09 2.77475 101.56777 4588 ft 279 kts 316°
2026-05-01 09:09 2.79026 101.55617 5407 ft 280 kts 328°
2026-05-01 09:09 2.80667 101.54549 6277 ft 283 kts 328°
2026-05-01 09:10 2.82329 101.53474 7089 ft 287 kts 329°
2026-05-01 09:10 2.84018 101.52382 7885 ft 291 kts 328°
2026-05-01 09:10 2.85731 101.51274 8680 ft 295 kts 328°
2026-05-01 09:10 2.87469 101.50147 9488 ft 300 kts 328°
2026-05-01 09:11 2.89230 101.49000 10210 ft 305 kts 328°
2026-05-01 09:11 2.91077 101.47797 10478 ft 328 kts 328°
2026-05-01 09:11 2.93040 101.46518 10901 ft 342 kts 328°
2026-05-01 09:11 2.95051 101.45208 11573 ft 347 kts 328°
2026-05-01 09:12 2.97090 101.43878 12275 ft 351 kts 328°
2026-05-01 09:12 2.99121 101.42553 12952 ft 355 kts 328°
2026-05-01 09:12 3.01227 101.41177 13637 ft 359 kts 328°
2026-05-01 09:12 3.03298 101.39823 14222 ft 362 kts 328°
2026-05-01 09:13 3.05417 101.38440 14804 ft 365 kts 328°
2026-05-01 09:13 3.07581 101.37029 15385 ft 369 kts 328°
2026-05-01 09:13 3.09742 101.35623 15962 ft 372 kts 328°
2026-05-01 09:13 3.11889 101.34222 16521 ft 375 kts 328°
2026-05-01 09:14 3.14087 101.32787 17085 ft 378 kts 328°
2026-05-01 09:14 3.16298 101.31342 17642 ft 382 kts 329°
2026-05-01 09:14 3.18535 101.29882 18189 ft 385 kts 329°
2026-05-01 09:14 3.20790 101.28409 18664 ft 388 kts 329°
2026-05-01 09:15 3.23061 101.26925 19131 ft 391 kts 329°
2026-05-01 09:15 3.25351 101.25431 19616 ft 394 kts 329°
2026-05-01 09:15 3.27557 101.23990 20067 ft 397 kts 329°
2026-05-01 09:15 3.29878 101.22477 20529 ft 400 kts 329°
2026-05-01 09:16 3.32217 101.20953 20989 ft 403 kts 329°
2026-05-01 09:16 3.34573 101.19416 21441 ft 406 kts 329°
2026-05-01 09:16 3.36948 101.17865 21885 ft 408 kts 329°
2026-05-01 09:17 3.41739 101.14730 22747 ft 414 kts 329°
2026-05-01 09:17 3.44160 101.13146 23177 ft 417 kts 328°
2026-05-01 09:17 3.49053 101.09944 23912 ft 422 kts 329°
2026-05-01 09:18 3.51518 101.08332 24271 ft 424 kts 328°
2026-05-01 09:18 3.56487 101.05087 24981 ft 429 kts 329°
2026-05-01 09:19 3.61509 101.01807 25678 ft 433 kts 328°
2026-05-01 09:19 3.64034 101.00155 26016 ft 435 kts 329°
2026-05-01 09:19 3.66579 100.98508 26357 ft 436 kts 331°
2026-05-01 09:20 3.72078 100.95927 27017 ft 438 kts 338°
2026-05-01 09:20 3.77683 100.93442 27662 ft 442 kts 338°
2026-05-01 09:21 3.83344 100.90921 28300 ft 447 kts 338°
2026-05-01 09:21 3.86189 100.89651 28624 ft 449 kts 338°
2026-05-01 09:21 3.91919 100.87095 29244 ft 453 kts 338°
2026-05-01 09:22 3.97669 100.84533 29775 ft 457 kts 338°
2026-05-01 09:22 4.03332 100.82011 29824 ft 431 kts 338°
2026-05-01 09:23 4.11441 100.78408 29817 ft 423 kts 338°
2026-05-01 09:24 4.19499 100.74815 29813 ft 422 kts 338°
2026-05-01 09:25 4.30220 100.70001 29810 ft 423 kts 338°
2026-05-01 09:26 4.38268 100.66391 29823 ft 422 kts 338°
2026-05-01 09:26 4.46318 100.62798 29833 ft 422 kts 339°
2026-05-01 09:27 4.54425 100.59354 29844 ft 421 kts 339°
2026-05-01 09:28 4.59827 100.57067 29844 ft 421 kts 339°
2026-05-01 09:28 4.65214 100.54774 29839 ft 421 kts 339°
2026-05-01 09:29 4.73294 100.51310 29841 ft 421 kts 339°
2026-05-01 09:30 4.81376 100.47852 29837 ft 421 kts 339°
2026-05-01 09:30 4.89379 100.44218 29837 ft 421 kts 337°
2026-05-01 09:31 4.92017 100.42955 29696 ft 417 kts 336°
2026-05-01 09:31 4.94613 100.41712 29420 ft 410 kts 337°
2026-05-01 09:31 4.99697 100.39305 28628 ft 400 kts 337°
2026-05-01 09:32 5.02205 100.38129 28195 ft 396 kts 337°
2026-05-01 09:32 5.07145 100.35821 27313 ft 388 kts 337°
2026-05-01 09:32 5.09548 100.34698 26883 ft 386 kts 337°
2026-05-01 09:33 5.11983 100.33558 26442 ft 383 kts 337°
2026-05-01 09:33 5.14393 100.32431 25978 ft 382 kts 337°
2026-05-01 09:33 5.19178 100.30187 25060 ft 379 kts 337°
2026-05-01 09:34 5.21563 100.29067 24594 ft 379 kts 337°
2026-05-01 09:34 5.23960 100.27943 24107 ft 379 kts 337°
2026-05-01 09:34 5.28748 100.25701 23084 ft 380 kts 337°
2026-05-01 09:35 5.31138 100.24572 22573 ft 379 kts 336°
2026-05-01 09:35 5.35872 100.22303 21618 ft 376 kts 336°
2026-05-01 09:35 5.38227 100.21168 21134 ft 374 kts 336°
2026-05-01 09:36 5.40569 100.20040 20674 ft 373 kts 336°
2026-05-01 09:36 5.42911 100.18914 20213 ft 373 kts 336°
2026-05-01 09:36 5.45253 100.17793 19739 ft 372 kts 336°
2026-05-01 09:36 5.47588 100.16675 19275 ft 372 kts 336°
2026-05-01 09:37 5.49918 100.15559 18817 ft 371 kts 336°
2026-05-01 09:37 5.54561 100.13338 17947 ft 368 kts 336°
2026-05-01 09:37 5.56850 100.12242 17615 ft 362 kts 336°
2026-05-01 09:38 5.61377 100.10073 16699 ft 359 kts 336°
2026-05-01 09:38 5.63627 100.08996 16294 ft 357 kts 336°
2026-05-01 09:38 5.65859 100.07927 15889 ft 354 kts 336°
2026-05-01 09:39 5.70267 100.05810 14857 ft 347 kts 336°
2026-05-01 09:39 5.72409 100.04782 14404 ft 336 kts 336°
2026-05-01 09:39 5.74522 100.03769 14001 ft 336 kts 336°
2026-05-01 09:40 5.76634 100.02757 13586 ft 337 kts 336°
2026-05-01 09:40 5.80865 100.00737 12724 ft 335 kts 336°
2026-05-01 09:40 5.82966 99.99731 12307 ft 334 kts 336°
2026-05-01 09:41 5.85060 99.98725 11886 ft 333 kts 336°
2026-05-01 09:41 5.89226 99.96726 11071 ft 330 kts 336°
2026-05-01 09:41 5.91270 99.95750 10694 ft 328 kts 336°
2026-05-01 09:42 5.93317 99.94771 10333 ft 325 kts 336°
2026-05-01 09:42 5.95257 99.93596 9912 ft 327 kts 321°
2026-05-01 09:42 5.97922 99.90064 9534 ft 311 kts 303°
2026-05-01 09:43 6.00175 99.86405 8820 ft 306 kts 303°
2026-05-01 09:43 6.01292 99.84590 8436 ft 304 kts 303°
2026-05-01 09:43 6.02043 99.83369 8171 ft 303 kts 303°
2026-05-01 09:44 6.04234 99.79813 7392 ft 298 kts 303°
2026-05-01 09:44 6.05319 99.78051 6734 ft 296 kts 303°
2026-05-01 09:44 6.06395 99.76297 6095 ft 293 kts 303°
2026-05-01 09:45 6.07459 99.74561 5438 ft 290 kts 303°
2026-05-01 09:45 6.09569 99.71133 4186 ft 288 kts 303°
2026-05-01 09:45 6.10616 99.69427 3860 ft 284 kts 303°
2026-05-01 09:46 6.11737 99.67846 3682 ft 270 kts 315°
2026-05-01 09:46 6.13130 99.66717 3557 ft 246 kts 327°
2026-05-01 09:46 6.14484 99.65755 3462 ft 233 kts 327°
2026-05-01 09:46 6.15782 99.64828 3350 ft 224 kts 327°
2026-05-01 09:47 6.17135 99.64091 3089 ft 221 kts 345°
2026-05-01 09:47 6.18614 99.63874 2904 ft 213 kts
2026-05-01 09:47 6.20035 99.64158 2676 ft 204 kts 24°
2026-05-01 09:47 6.21224 99.64832 2469 ft 189 kts 37°
2026-05-01 09:48 6.22279 99.65553 2237 ft 178 kts 37°
2026-05-01 09:48 6.23263 99.66223 2017 ft 164 kts 38°
2026-05-01 09:48 6.24168 99.66840 1790 ft 153 kts 38°
2026-05-01 09:48 6.25040 99.67437 1606 ft 151 kts 39°
2026-05-01 09:49 6.25921 99.68040 1412 ft 153 kts 36°
2026-05-01 09:49 6.26800 99.68641 1228 ft 152 kts 36°
2026-05-01 09:49 6.27675 99.69238 1022 ft 152 kts 38°
2026-05-01 09:49 6.28543 99.69835 842 ft 150 kts 38°
2026-05-01 09:50 6.29386 99.70430 637 ft 149 kts 36°
2026-05-01 09:50 6.30240 99.71004 481 ft 147 kts 35°
2026-05-01 09:50 6.31083 99.71573 276 ft 145 kts 36°
2026-05-01 09:50 6.31901 99.72135 100 ft 142 kts 34°
2026-05-01 09:51 6.32677 99.72663 40 ft 125 kts 34°
2026-05-01 09:51 6.33299 99.73086 36 ft 83 kts 34°
2026-05-01 09:51 6.33640 99.73319 36 ft 47 kts 34°
2026-05-01 09:51 6.33887 99.73487 34 ft 32 kts 34°
2026-05-01 09:52 6.33998 99.73527 37 ft 15 kts 330°
2026-05-01 09:52 6.34051 99.73455 35 ft 10 kts 304°
2026-05-01 09:52 6.34085 99.73405 36 ft 8 kts 304°
2026-05-01 09:52 6.34106 99.73360 36 ft 7 kts 265°
2026-05-01 09:53 6.34095 99.73324 36 ft 5 kts 281°
2026-05-01 09:53 6.34111 99.73301 35 ft 4 kts 304°
2026-05-01 09:53 6.34122 99.73284 34 ft 2 kts 304°
2026-05-01 09:53 6.34125 99.73280 34 ft 1 kts 304°